OAS257 MDSD-SKBO

Flight info

Callsign OAS257
Flight time N/A
Altitude 36000
Route BEROX2J BEROX DCT AMBAS DCT UGOSA DCT LOKOV UG444 EJA UQ119 ILSEV ILSEV5E
Aircraft A320/M-SDE3FGHIRWY/LB1

Departure

Time N/A
Airport Las Américas International Airport (MDSD)

Arrival

Time 2026-05-04 23:02
Airport El Dorado International Airport (SKBO)
Time Latitude Longitude Altitude Speed Heading
2026-05-04 22:50 5.24182 -74.46024 17786 ft 353 kts 262°
2026-05-04 22:50 5.23624 -74.48412 17790 ft 352 kts 249°
2026-05-04 22:51 5.22759 -74.50706 17788 ft 352 kts 248°
2026-05-04 22:51 5.21738 -74.52935 17648 ft 351 kts 235°
2026-05-04 22:51 5.20117 -74.54726 17201 ft 345 kts 214°
2026-05-04 22:51 5.18034 -74.55850 16829 ft 338 kts 194°
2026-05-04 22:52 5.15749 -74.56233 16475 ft 331 kts 176°
2026-05-04 22:52 5.13510 -74.55879 16145 ft 324 kts 158°
2026-05-04 22:52 5.11519 -74.54883 15825 ft 319 kts 144°
2026-05-04 22:52 5.09670 -74.53666 15524 ft 317 kts 144°
2026-05-04 22:53 5.07831 -74.52455 15199 ft 316 kts 144°
2026-05-04 22:53 5.06003 -74.51252 14898 ft 314 kts 144°
2026-05-04 22:53 5.04179 -74.50051 14574 ft 313 kts 144°
2026-05-04 22:53 5.02366 -74.48858 14321 ft 310 kts 145°
2026-05-04 22:54 5.00562 -74.47675 14034 ft 308 kts 145°
2026-05-04 22:54 4.98783 -74.46509 13604 ft 301 kts 145°
2026-05-04 22:54 4.97067 -74.45381 13288 ft 292 kts 145°
2026-05-04 22:54 4.95379 -74.44270 13075 ft 287 kts 145°
2026-05-04 22:55 4.93757 -74.43201 12964 ft 279 kts 145°
2026-05-04 22:55 4.92143 -74.42134 12867 ft 278 kts 143°
2026-05-04 22:55 4.90710 -74.40859 12887 ft 269 kts 129°
2026-05-04 22:55 4.89597 -74.39412 12904 ft 256 kts 125°
2026-05-04 22:56 4.88575 -74.38009 12919 ft 242 kts 126°
2026-05-04 22:56 4.87588 -74.36691 12937 ft 233 kts 126°
2026-05-04 22:56 4.86612 -74.35401 12941 ft 232 kts 126°
2026-05-04 22:56 4.85633 -74.34107 12784 ft 233 kts 126°
2026-05-04 22:57 4.84672 -74.32836 12531 ft 228 kts 126°
2026-05-04 22:57 4.83730 -74.31590 12247 ft 221 kts 126°
2026-05-04 22:57 4.82812 -74.30376 11957 ft 216 kts 126°
2026-05-04 22:57 4.81913 -74.29187 11705 ft 211 kts 126°
2026-05-04 22:58 4.81032 -74.28023 11451 ft 207 kts 126°
2026-05-04 22:58 4.80168 -74.26879 11189 ft 205 kts 127°
2026-05-04 22:58 4.79314 -74.25751 10945 ft 201 kts 126°
2026-05-04 22:58 4.78486 -74.24656 10705 ft 193 kts 126°
2026-05-04 22:59 4.77704 -74.23623 10496 ft 180 kts 126°
2026-05-04 22:59 4.76971 -74.22654 10290 ft 168 kts 127°
2026-05-04 22:59 4.76280 -74.21740 10078 ft 162 kts 127°
2026-05-04 22:59 4.75605 -74.20847 9863 ft 159 kts 126°
2026-05-04 23:00 4.74940 -74.19968 9652 ft 158 kts 126°
2026-05-04 23:00 4.74277 -74.19092 9440 ft 158 kts 127°
2026-05-04 23:00 4.73616 -74.18216 9209 ft 157 kts 126°
2026-05-04 23:00 4.72946 -74.17343 8983 ft 158 kts 127°
2026-05-04 23:01 4.72502 -74.16765 8822 ft 158 kts 124°
2026-05-04 23:01 4.71625 -74.15585 8494 ft 157 kts 124°
2026-05-04 23:01 4.71183 -74.15010 8387 ft 157 kts 126°
2026-05-04 23:01 4.70456 -74.14025 8365 ft 98 kts 127°
2026-05-04 23:02 4.70332 -74.13865 8365 ft 82 kts 128°
2026-05-04 23:02 4.70025 -74.13619 8367 ft 20 kts 157°
2026-05-04 23:02 4.69978 -74.13600 8366 ft 0 kts 157°
2026-05-04 23:03 4.69975 -74.13599 8366 ft 3 kts 159°
2026-05-04 23:03 4.69949 -74.13589 8366 ft 4 kts 158°
2026-05-04 23:03 4.69939 -74.13585 8366 ft 0 kts 159°
2026-05-04 23:03 4.69924 -74.13579 8367 ft 4 kts 159°
2026-05-04 23:04 4.69900 -74.13569 8366 ft 6 kts 159°
2026-05-04 23:04 4.69849 -74.13569 8366 ft 9 kts 209°
2026-05-04 23:04 4.69822 -74.13589 8366 ft 4 kts 220°
2026-05-04 23:04 4.69812 -74.13621 8366 ft 6 kts 281°
2026-05-04 23:05 4.69832 -74.13666 8366 ft 8 kts 310°
2026-05-04 23:05 4.69861 -74.13716 8366 ft 8 kts 256°
2026-05-04 23:05 4.69841 -74.13745 8366 ft 4 kts 231°
2026-05-04 23:05 4.69834 -74.13772 8366 ft 4 kts 284°
2026-05-04 23:06 4.69848 -74.13798 8344 ft 4 kts 304°
2026-05-04 23:06 4.69865 -74.13823 8366 ft 6 kts 306°
2026-05-04 23:06 4.69894 -74.13863 8366 ft 7 kts 295°
2026-05-04 23:06 4.69874 -74.13888 8366 ft 4 kts 217°
2026-05-04 23:07 4.69853 -74.13902 8366 ft 3 kts 215°
2026-05-04 23:07 4.69840 -74.13912 8366 ft 1 kts 217°
2026-05-04 23:07 4.69834 -74.13916 8366 ft 0 kts 217°